Weather History for KBIJ - April, 2013

Change the Weather History Date:

Thursday, April 25, 2013

  Actual Average (KDHN) Record (KDHN)
Temperature  
Mean Temperature 68 °F 68 °F  
Max Temperature 80 °F 81 °F - ()
Min Temperature 55 °F 56 °F - ()
Degree Days  
Heating Degree Days 0 1  
Month to date heating degree days 65  
Since 1 July heating degree days 1835  
Cooling Degree Days 2 4  
Month to date cooling degree days 64  
Year to date cooling degree days 95  
Growing Degree Days 18 (Base 50)    
Moisture  
Dew Point 60 °F    
Average Humidity 79    
Maximum Humidity 100    
Minimum Humidity 47    
Precipitation  
Precipitation 0.00 in 0.09 in - ()
Month to date precipitation 3.14  
Year to date precipitation 18.42  
Sea Level Pressure  
Sea Level Pressure 30.21 in    
Wind  
Wind Speed 2 mph (NNW)    
Max Wind Speed 9 mph    
Max Gust Speed -    
Visibility 9 miles    
Events      
T = Trace of Precipitation, MM = Missing Value Source: NWS Daily Summary

Daily Weather History Graph

Daily Weather History Graph

Search for Another Location

Airport or City:

Trip Planner

Search our weather history database for the weather conditions in past years. The results will help you decide how hot, cold, wet, or windy it might be!

Date:

Astronomy

Apr. 25, 2013 Rise Set
Actual Time 7:00 AM EDT 8:15 PM EDT
Civil Twilight 6:34 AM EDT 8:40 PM EDT
Nautical Twilight 6:04 AM EDT 9:11 PM EDT
Astronomical Twilight 5:33 AM EDT 9:42 PM EDT
Moon 8:25 PM EDT (4/25) 6:42 AM EDT (4/25)
Length of Visible Light 14h 05m
Length of Day
13h 14m
Full, 100% of the Moon is Illuminated
Apr 25
Full
Apr 25
Full
May 2
Last Quarter
May 9
New
May 18
First Quarter

Hourly Weather History & Observations

Time (EDT) Temp. Heat Index Dew Point Humidity Pressure Visibility Wind Dir Wind Speed Gust Speed Precip Events Conditions
12:15 AM 64.4 °F - 64.4 °F 100% 30.14 in 10.0 mi Calm Calm - N/A   Mostly Cloudy
12:35 AM 64.4 °F - 64.4 °F 100% 30.15 in 10.0 mi Calm Calm - N/A   Scattered Clouds
12:55 AM 64.4 °F - 64.4 °F 100% 30.16 in 7.0 mi Calm Calm - N/A   Mostly Cloudy
1:15 AM 62.6 °F - 62.6 °F 100% 30.15 in 7.0 mi Calm Calm - N/A   Scattered Clouds
1:35 AM 62.6 °F - 62.6 °F 100% 30.15 in 7.0 mi Calm Calm - N/A   Scattered Clouds
1:55 AM 62.6 °F - 62.6 °F 100% 30.14 in 5.0 mi Calm Calm - N/A   Scattered Clouds
2:15 AM 62.6 °F - 62.6 °F 100% 30.14 in 10.0 mi Calm Calm - N/A   Scattered Clouds
2:35 AM 60.8 °F - 60.8 °F 100% 30.13 in 5.0 mi Calm Calm - N/A   Clear
2:55 AM 60.8 °F - 60.8 °F 100% 30.13 in 3.0 mi Calm Calm - N/A   Clear
3:15 AM 60.8 °F - 60.8 °F 100% 30.13 in 7.0 mi Calm Calm - N/A   Scattered Clouds
3:35 AM 60.8 °F - 60.8 °F 100% 30.13 in 7.0 mi West 4.6 mph - N/A   Overcast
3:55 AM 62.6 °F - 62.6 °F 100% 30.13 in 7.0 mi Calm Calm - N/A   Overcast
4:15 AM 62.6 °F - 62.6 °F 100% 30.13 in 7.0 mi Calm Calm - N/A   Mostly Cloudy
4:35 AM 60.8 °F - 60.8 °F 100% 30.13 in 4.0 mi Calm Calm - N/A   Scattered Clouds
4:55 AM 60.8 °F - 60.8 °F 100% 30.14 in 7.0 mi Calm Calm - N/A   Mostly Cloudy
5:15 AM 62.6 °F - 62.6 °F 100% 30.15 in 7.0 mi Calm Calm - N/A   Overcast
5:35 AM 60.8 °F - 60.8 °F 100% 30.16 in 10.0 mi NW 3.5 mph - N/A   Overcast
5:55 AM 60.8 °F - 60.8 °F 100% 30.17 in 10.0 mi West 3.5 mph - N/A   Overcast
6:15 AM 60.8 °F - 60.8 °F 100% 30.17 in 7.0 mi Calm Calm - N/A   Overcast
6:35 AM 60.8 °F - 60.8 °F 100% 30.18 in 10.0 mi Calm Calm - N/A   Overcast
6:55 AM 60.8 °F - 60.8 °F 100% 30.19 in 10.0 mi Calm Calm - N/A   Overcast
7:15 AM 60.8 °F - 60.8 °F 100% 30.20 in 10.0 mi Calm Calm - N/A   Overcast
7:35 AM 62.6 °F - 60.8 °F 94% 30.20 in 10.0 mi North 3.5 mph - N/A   Overcast
7:55 AM 62.6 °F - 60.8 °F 94% 30.21 in 10.0 mi North 3.5 mph - N/A   Mostly Cloudy
8:15 AM 62.6 °F - 60.8 °F 94% 30.21 in 10.0 mi Calm Calm - N/A   Overcast
8:35 AM 62.6 °F - 60.8 °F 94% 30.21 in 10.0 mi North 5.8 mph - N/A   Overcast
8:55 AM 64.4 °F - 60.8 °F 88% 30.22 in 10.0 mi NNE 6.9 mph - N/A   Overcast
9:15 AM 64.4 °F - 60.8 °F 88% 30.22 in 10.0 mi North 5.8 mph - N/A   Overcast
9:35 AM 64.4 °F - 60.8 °F 88% 30.22 in 10.0 mi North 4.6 mph - N/A   Overcast
9:55 AM 64.4 °F - 60.8 °F 88% 30.22 in 10.0 mi North 4.6 mph - N/A   Overcast
10:15 AM 66.2 °F - 62.6 °F 88% 30.24 in 10.0 mi Calm Calm - N/A   Overcast
10:35 AM 66.2 °F - 62.6 °F 88% 30.25 in 10.0 mi NNW 3.5 mph - N/A   Overcast
10:55 AM 68.0 °F - 60.8 °F 78% 30.26 in 10.0 mi NNW 3.5 mph - N/A   Overcast
11:15 AM 68.0 °F - 60.8 °F 78% 30.27 in 5.0 mi NNW 4.6 mph - N/A   Haze
11:35 AM 68.0 °F - 62.6 °F 83% 30.27 in 7.0 mi Calm Calm - N/A   Overcast
11:55 AM 69.8 °F - 62.6 °F 78% 30.27 in 10.0 mi Calm Calm - N/A   Overcast
12:15 PM 71.6 °F - 62.6 °F 73% 30.27 in 10.0 mi North 4.6 mph - N/A   Mostly Cloudy
12:35 PM 71.6 °F - 62.6 °F 73% 30.26 in 10.0 mi West 5.8 mph - N/A   Mostly Cloudy
12:55 PM 73.4 °F - 64.4 °F 73% 30.25 in 10.0 mi West 5.8 mph - N/A   Scattered Clouds
1:15 PM 73.4 °F - 62.6 °F 69% 30.25 in 10.0 mi Calm Calm - N/A   Scattered Clouds
1:35 PM 73.4 °F - 62.6 °F 69% 30.25 in 10.0 mi North 6.9 mph - N/A   Scattered Clouds
1:55 PM 77.0 °F - 62.6 °F 61% 30.24 in 10.0 mi WNW 5.8 mph - N/A   Scattered Clouds
2:15 PM 77.0 °F - 62.6 °F 61% 30.24 in 10.0 mi NNW 8.1 mph - N/A   Scattered Clouds
2:35 PM 77.0 °F - 62.6 °F 61% 30.23 in 10.0 mi Calm Calm - N/A   Mostly Cloudy
2:55 PM 78.8 °F - 62.6 °F 57% 30.23 in 10.0 mi NNW 5.8 mph - N/A   Mostly Cloudy
3:15 PM 78.8 °F - 62.6 °F 57% 30.23 in 10.0 mi Calm Calm - N/A   Scattered Clouds
3:35 PM 78.8 °F - 60.8 °F 54% 30.22 in 10.0 mi WNW 5.8 mph - N/A   Clear
3:55 PM 80.6 °F 81.8 °F 62.6 °F 54% 30.21 in 10.0 mi North 4.6 mph - N/A   Scattered Clouds
4:15 PM 78.8 °F - 60.8 °F 54% 30.20 in 10.0 mi North 5.8 mph - N/A   Scattered Clouds
4:35 PM 78.8 °F - 60.8 °F 54% 30.20 in 10.0 mi Calm Calm - N/A   Scattered Clouds
4:55 PM 80.6 °F 81.5 °F 60.8 °F 51% 30.20 in 10.0 mi NNE 5.8 mph - N/A   Clear
5:15 PM 80.6 °F 81.5 °F 60.8 °F 51% 30.20 in 10.0 mi NNW 9.2 mph - N/A   Scattered Clouds
5:35 PM 78.8 °F - 60.8 °F 54% 30.21 in 10.0 mi North 6.9 mph - N/A   Scattered Clouds
5:55 PM 78.8 °F - 59.0 °F 51% 30.21 in 10.0 mi NNW 3.5 mph - N/A   Clear
6:15 PM 78.8 °F - 59.0 °F 51% 30.21 in 10.0 mi North 8.1 mph - N/A   Clear
6:35 PM 78.8 °F - 59.0 °F 51% 30.21 in 10.0 mi NNW 6.9 mph - N/A   Clear
6:55 PM 77.0 °F - 57.2 °F 50% 30.22 in 10.0 mi NW 5.8 mph - N/A   Clear
7:15 PM 77.0 °F - 57.2 °F 50% 30.22 in 10.0 mi NNW 5.8 mph - N/A   Clear
7:35 PM 75.2 °F - 53.6 °F 47% 30.22 in 10.0 mi NNW 3.5 mph - N/A   Clear
7:55 PM 73.4 °F - 53.6 °F 50% 30.23 in 10.0 mi Calm Calm - N/A   Clear
8:15 PM 71.6 °F - 51.8 °F 50% 30.24 in 10.0 mi Calm Calm - N/A   Clear
8:35 PM 69.8 °F - 51.8 °F 53% 30.24 in 10.0 mi Calm Calm - N/A   Clear
8:55 PM 68.0 °F - 53.6 °F 60% 30.24 in 10.0 mi Calm Calm - N/A   Clear
9:15 PM 64.4 °F - 53.6 °F 68% 30.25 in 10.0 mi Calm Calm - N/A   Clear
9:35 PM 62.6 °F - 53.6 °F 72% 30.25 in 10.0 mi Calm Calm - N/A   Clear
9:55 PM 62.6 °F - 53.6 °F 72% 30.26 in 10.0 mi Calm Calm - N/A   Clear
10:15 PM 62.6 °F - 51.8 °F 68% 30.27 in 10.0 mi Calm Calm - N/A   Clear
10:35 PM 59.0 °F - 53.6 °F 82% 30.27 in 10.0 mi Calm Calm - N/A   Clear
10:55 PM 57.2 °F - 51.8 °F 82% 30.27 in 10.0 mi Calm Calm - N/A   Clear
11:15 PM 55.4 °F - 51.8 °F 88% 30.27 in 10.0 mi Calm Calm - N/A   Clear
11:35 PM 55.4 °F - 51.8 °F 88% 30.27 in 10.0 mi Calm Calm - N/A   Clear
11:55 PM 55.4 °F - 50.0 °F 82% 30.27 in 10.0 mi Calm Calm - N/A   Clear